Flag for Germany Weather past 2 weeks in Celle, Lower Saxony, Germany

41 °F

Passing clouds.

Feels Like: 41 °F
Forecast: 34 / 42 °F
Wind: 2 mph from West

Location: Celle Airport

Current Time: Nov 26, 2015 at 5:05:09 PM

Latest Report: Nov 26, 2015 at 4:20 PM

Visibility: N/A

Pressure: 30.04 "Hg

Humidity: 93%

Dew point: 39 °F

Location of CelleLocation

Historic Weather in Celle — Graph


Celle temperature yesterday

Maximum temperature yesterday: 41 °F (at 2:20 PM)
Minimum temperature yesterday: 34 °F (at 1:52 AM)
Average temperature yesterday: 38 °F

Past Weeks' High & Low Weather Summary

High59 °F (Nov 13, 11:20 AM)100% (Nov 15, 2:20 AM)30.27 "Hg (Nov 15, 2:20 AM)
Low30 °F (Nov 22, 3:20 AM)51% (Nov 13, 3:20 PM)29.33 "Hg (Nov 21, 6:20 AM)
Average45 °F85%29.82 "Hg
* Reported Nov 11 3:20 PM — Nov 26 3:20 PM, Celle, Weather by CustomWeather, © 2015

Note: Actual official high and low records may vary slightly from our data, if they occured in-between our weather recording intervals... More about our weather records


Celle weather history for previous 24 hours

Time TempWeatherWind HumidityBarometerVisibility
3:20 PM
Thu, Nov 26
45 °FScattered clouds.3 mph81%30.04 "HgN/A
2:20 PM45 °FScattered clouds.8 mph81%30.01 "HgN/A
1:20 PM45 °FScattered clouds.7 mph81%30.01 "HgN/A
12:20 PM45 °FScattered clouds.6 mph81%29.98 "HgN/A
11:20 AM43 °FPassing clouds.7 mph87%29.98 "HgN/A
10:20 AM39 °FPassing clouds.5 mph93%29.95 "HgN/A
9:49 AM39 °FScattered clouds.3 mph93%29.92 "Hg5 mi
9:20 AM37 °FFog.5 mph100%29.92 "Hg3 mi
9:00 AM37 °FFog.5 mph93%29.92 "Hg2 mi
8:48 AM37 °FFog.5 mph93%29.92 "Hg1 mi
8:20 AM37 °FFog.5 mph100%29.89 "Hg1 mi
7:56 AM37 °FFog.5 mph100%29.89 "Hg1 mi
7:20 AM37 °FFog.5 mph100%29.86 "Hg2 mi
6:20 AM37 °FFog.6 mph100%29.83 "Hg2 mi
5:58 AM37 °FFog.3 mph100%29.83 "Hg2 mi
5:20 AM37 °FFog.3 mph100%29.80 "Hg3 mi
4:20 AM39 °FPartly cloudy.3 mph93%29.80 "Hg4 mi
3:20 AM39 °FPartly cloudy.5 mph100%29.77 "Hg4 mi
2:20 AM39 °FPartly cloudy.5 mph100%29.74 "Hg4 mi
1:20 AM39 °FPartly cloudy.6 mph100%29.74 "Hg4 mi
12:20 AM39 °FSprinkles. Fog.5 mph100%29.71 "Hg3 mi
11:20 PM
Wed, Nov 25
39 °FSprinkles. Fog.5 mph100%29.71 "Hg3 mi
10:20 PM41 °FFog.5 mph93%29.68 "Hg3 mi
9:20 PM41 °FFog.6 mph93%29.68 "Hg3 mi
9:00 PM41 °FFog.5 mph100%29.68 "Hg3 mi
8:20 PM41 °FFog.3 mph93%29.68 "Hg3 mi
7:20 PM41 °FPartly cloudy.6 mph93%29.65 "Hg4 mi
6:59 PM41 °FLight rain. Fog.7 mph93%29.65 "Hg3 mi
6:48 PM39 °FLight rain. Fog.3 mph100%29.65 "Hg2 mi
6:20 PM39 °FPassing clouds.3 mph100%29.65 "Hg5 mi
6:01 PM39 °FPassing clouds.5 mph100%29.65 "Hg4 mi
5:48 PM39 °FDrizzle. Fog.5 mph100%29.62 "Hg2 mi
5:20 PM39 °FLight rain. Partly cloudy.5 mph100%29.62 "Hg5 mi
Weather by CustomWeather, © 2015

See weather overviewHow to use our weather pages